Location: Alphen aan den Rijn
(52.1277°N, 4.6689°E)
Time: 01:32:00

Envisat - Pass Details

Date: 27 February 2018
Orbit: 764 x 766 km, 98.2° (Epoch: 21 March)

Event Time Altitude Azimuth Distance (km) Brightness Sun altitude
Rises 21:11:56 0° 203° (SSW) 3,223 6.2 -27.1°
Reaches altitude 10° 21:14:42 10° 218° (SW) 2,302 5.6 -27.5°
Maximum altitude 21:18:39 23° 270° (W) 1,605 5.2 -28.0°
Drops below altitude 10° 21:22:38 10° 321° (NW) 2,315 6.3 -28.6°
Sets 21:25:27 0° 336° (NNW) 3,246 6.9 -29.0°
